Weather in Zhumadian

China     32°58′55″N   114°01′20″E
temp.,
°C
wind,
m/s
gust,
m/s
humid.,
%
clouds,
%
prec.,
mm/h
press.,
hPa
HPBL,
m
3 march, wed
wed323:00+7se2366100 0.0 102877
02:00+6sse2367100 0.0 102669
05:00+4se2372100 0.0 102532
08:00+5sse237598 0.0 102495
11:00+13s234572 0.0 1023598
14:00+16sw343669 0.0 10201484
17:00+15s234414 0.0 1019590
20:00+10ssw34567 0.0 102054
4 march, thu
thu423:00+9s347239 0.0 102166
02:00+8ssw338020 0.0 102049
05:00+7s33860 0.0 101939
08:00+8s23830 0.0 101995
11:00+15sw23530 0.0 1020568
14:00+19ssw33410 0.0 10181209
17:00+18sse34500 0.0 1016798
20:00+12sse45670 0.0 101784
5 march, fri
fri523:00+11sse227168 0.0 101922
02:00+10se347284 0.0 101847
05:00+10se2271100 0.0 101738
08:00+11sse1275100 0.0 101884
11:00+12e1277100 0.0 1019193
14:00+13ne2376100 0.0 1018368
17:00+13ese3778100 0.0 1017577
20:00+10e2386100 0.0 102034
6 march, sat
sat623:00+8ene2293100 0.0 102330
02:00+8nne81470100 0.0 1026489
05:00+4nne81368100 0.2 1027647
08:00+3nne71264100 0.3 1031709
11:00+5nne81163100 0.0 1032830
14:00+6nne71059100 0.0 1031828
17:00+6nne6859100 0.0 1031829
20:00+4nne595799 0.0 1033537
7 march, sun
sun723:00+1n496386 0.0 1033317
02:000nnw377684 0.0 1032239
05:00−1nnw358116 0.0 1032125
08:00+1n34698 0.0 1032221
11:00+7ne23554 0.0 1032703
14:00+11e235130 0.0 10281147
17:00+11ene3456100 0.0 10271087
20:00+7ese2271100 0.0 102822